Time,TemperatureF,DewpointF,PressureIn,WindDirection,WindDirectionDegrees,WindSpeedMPH,WindSpeedGustMPH,Humidity,HourlyPrecipIn,Conditions,Clouds,dailyrainin,SolarRadiationWatts/m^2,SoftwareType,DateUTC
2013-03-06 00:00:00,36.8,32.0,30.02,ENE,74,0.0,1.0,83,0.00,,,0.00,0,weatherlink.com 1.10,2013-03-06 05:00:00,
2013-03-06 00:15:00,36.4,32.0,30.02,ENE,74,0.0,1.0,83,0.00,,,0.00,0,weatherlink.com 1.10,2013-03-06 05:15:00,
2013-03-06 00:30:00,36.1,32.0,30.01,ENE,74,0.0,0.0,84,0.00,,,0.00,0,weatherlink.com 1.10,2013-03-06 05:30:00,
2013-03-06 00:45:00,35.8,31.0,30.02,ENE,74,0.0,0.0,84,0.00,,,0.00,0,weatherlink.com 1.10,2013-03-06 05:45:00,
2013-03-06 01:00:00,34.9,31.0,30.02,ENE,74,0.0,0.0,85,0.00,,,0.00,0,weatherlink.com 1.10,2013-03-06 06:00:00,
2013-03-06 01:15:00,34.0,30.0,30.01,ENE,74,0.0,0.0,86,0.00,,,0.00,0,weatherlink.com 1.10,2013-03-06 06:15:00,
2013-03-06 01:30:00,33.3,30.0,30.01,ENE,74,0.0,0.0,87,0.00,,,0.00,0,weatherlink.com 1.10,2013-03-06 06:30:00,
2013-03-06 01:45:00,33.0,30.0,30.02,ENE,74,0.0,0.0,88,0.00,,,0.00,0,weatherlink.com 1.10,2013-03-06 06:45:00,
2013-03-06 02:00:00,33.5,30.0,30.01,ENE,74,0.0,0.0,88,0.00,,,0.00,0,weatherlink.com 1.10,2013-03-06 07:00:00,
2013-03-06 02:15:00,34.0,31.0,30.01,ENE,74,0.0,0.0,88,0.00,,,0.00,0,weatherlink.com 1.10,2013-03-06 07:15:00,
2013-03-06 02:30:00,35.5,32.0,30.01,WNW,299,3.0,3.0,88,0.00,,,0.00,0,weatherlink.com 1.10,2013-03-06 07:30:00,
2013-03-06 02:45:00,36.7,32.0,30.01,WNW,292,3.0,4.0,84,0.00,,,0.00,0,weatherlink.com 1.10,2013-03-06 07:45:00,
2013-03-06 03:00:00,37.0,32.0,30.01,West,266,0.0,4.0,83,0.00,,,0.00,0,weatherlink.com 1.10,2013-03-06 08:00:00,
2013-03-06 03:16:00,37.4,32.0,30.00,West,269,2.0,5.0,82,0.00,,,0.00,0,weatherlink.com 1.10,2013-03-06 08:16:00,
2013-03-06 03:31:00,37.6,33.0,30.00,West,269,0.0,5.0,82,0.00,,,0.00,0,weatherlink.com 1.10,2013-03-06 08:31:00,
2013-03-06 03:46:00,37.6,33.0,29.99,WNW,297,0.0,3.0,82,0.00,,,0.00,0,weatherlink.com 1.10,2013-03-06 08:46:00,
2013-03-06 04:01:00,37.6,33.0,29.99,West,281,0.0,5.0,83,0.00,,,0.00,0,weatherlink.com 1.10,2013-03-06 09:01:00,
2013-03-06 04:16:00,37.6,33.0,30.00,West,281,3.0,3.0,84,0.00,,,0.00,0,weatherlink.com 1.10,2013-03-06 09:16:00,
2013-03-06 04:31:00,37.6,33.0,29.99,North,355,0.0,5.0,84,0.00,,,0.00,0,weatherlink.com 1.10,2013-03-06 09:31:00,
2013-03-06 04:46:00,37.7,34.0,29.99,West,278,3.0,7.0,85,0.00,,,0.00,0,weatherlink.com 1.10,2013-03-06 09:46:00,
2013-03-06 05:01:00,37.7,34.0,29.98,West,274,2.0,6.0,86,0.00,,,0.00,0,weatherlink.com 1.10,2013-03-06 10:01:00,
2013-03-06 05:16:00,38.2,34.0,29.98,NW,319,6.0,6.0,86,0.00,,,0.00,0,weatherlink.com 1.10,2013-03-06 10:16:00,
2013-03-06 05:31:00,38.4,35.0,29.98,West,268,0.0,2.0,86,0.00,,,0.00,0,weatherlink.com 1.10,2013-03-06 10:31:00,
2013-03-06 05:45:00,38.5,35.0,29.99,WNW,296,4.0,5.0,87,0.00,,,0.00,0,weatherlink.com 1.10,2013-03-06 10:45:00,
2013-03-06 06:01:00,38.7,35.0,29.98,NNW,346,4.0,8.0,86,0.00,,,0.00,0,weatherlink.com 1.10,2013-03-06 11:01:00,
2013-03-06 06:16:00,39.1,35.0,29.98,NNW,348,7.0,12.0,85,0.00,,,0.00,5,weatherlink.com 1.10,2013-03-06 11:16:00,
2013-03-06 06:31:00,39.2,35.0,29.98,North,355,3.0,6.0,85,0.00,,,0.00,14,weatherlink.com 1.10,2013-03-06 11:31:00,
2013-03-06 06:46:00,39.6,35.0,29.97,NNW,341,3.0,7.0,84,0.00,,,0.00,23,weatherlink.com 1.10,2013-03-06 11:46:00,
2013-03-06 07:01:00,40.0,36.0,29.98,North,355,6.0,9.0,84,0.00,,,0.00,23,weatherlink.com 1.10,2013-03-06 12:01:00,
2013-03-06 07:16:00,40.0,36.0,29.97,NNE,26,7.0,13.0,86,0.00,,,0.00,19,weatherlink.com 1.10,2013-03-06 12:16:00,
2013-03-06 07:31:00,40.4,36.0,29.97,NW,309,4.0,12.0,85,0.00,,,0.00,28,weatherlink.com 1.10,2013-03-06 12:31:00,
2013-03-06 07:47:00,40.9,36.0,29.97,NE,38,5.0,17.0,83,0.00,,,0.00,37,weatherlink.com 1.10,2013-03-06 12:47:00,
2013-03-06 08:02:00,41.3,36.0,29.98,WNW,298,2.0,18.0,82,0.00,,,0.00,62,weatherlink.com 1.10,2013-03-06 13:02:00,
2013-03-06 08:17:00,41.7,36.0,29.98,NNW,338,2.0,18.0,80,0.00,,,0.00,74,weatherlink.com 1.10,2013-03-06 13:17:00,
2013-03-06 08:32:00,41.9,36.0,29.98,NNW,333,2.0,15.0,80,0.00,,,0.00,58,weatherlink.com 1.10,2013-03-06 13:32:00,
2013-03-06 08:47:00,42.1,36.0,29.98,NNW,329,3.0,17.0,79,0.00,,,0.00,84,weatherlink.com 1.10,2013-03-06 13:47:00,
2013-03-06 09:03:00,42.3,36.0,29.98,ENE,72,12.0,24.0,79,0.00,,,0.00,128,weatherlink.com 1.10,2013-03-06 14:03:00,
2013-03-06 09:17:00,41.7,37.0,29.98,WNW,285,4.0,16.0,82,0.00,,,0.00,120,weatherlink.com 1.10,2013-03-06 14:17:00,
2013-03-06 09:33:00,42.1,37.0,29.98,NE,45,3.0,18.0,81,0.00,,,0.00,97,weatherlink.com 1.10,2013-03-06 14:33:00,
2013-03-06 09:48:00,41.6,37.0,29.98,North,355,3.0,16.0,83,0.00,,,0.00,123,weatherlink.com 1.10,2013-03-06 14:48:00,
2013-03-06 10:03:00,41.7,37.0,29.98,NNE,22,4.0,17.0,84,0.00,,,0.00,127,weatherlink.com 1.10,2013-03-06 15:03:00,
2013-03-06 10:18:00,42.0,37.0,29.98,NNW,330,12.0,12.0,82,0.00,,,0.00,132,weatherlink.com 1.10,2013-03-06 15:18:00,
2013-03-06 10:33:00,42.0,37.0,29.97,ENE,57,7.0,14.0,82,0.00,,,0.00,163,weatherlink.com 1.10,2013-03-06 15:33:00,
2013-03-06 10:48:00,42.2,36.0,29.97,West,270,11.0,17.0,78,0.00,,,0.00,127,weatherlink.com 1.10,2013-03-06 15:48:00,
2013-03-06 11:03:00,42.8,35.0,29.97,NNW,327,8.0,21.0,73,0.00,,,0.00,135,weatherlink.com 1.10,2013-03-06 16:03:00,
2013-03-06 11:19:00,42.8,34.0,29.98,NE,50,4.0,19.0,72,0.00,,,0.00,193,weatherlink.com 1.10,2013-03-06 16:19:00,
2013-03-06 11:36:00,43.3,34.0,29.97,NNW,333,10.0,20.0,69,0.00,,,0.00,288,weatherlink.com 1.10,2013-03-06 16:36:00,
2013-03-06 11:49:00,43.6,34.0,29.98,NE,44,1.0,16.0,68,0.00,,,0.00,223,weatherlink.com 1.10,2013-03-06 16:49:00,
2013-03-06 12:05:00,42.3,35.0,29.97,ENE,58,8.0,18.0,74,0.00,,,0.00,209,weatherlink.com 1.10,2013-03-06 17:05:00,
2013-03-06 12:19:00,42.5,35.0,29.96,NE,51,4.0,18.0,74,0.00,,,0.00,478,weatherlink.com 1.10,2013-03-06 17:19:00,
2013-03-06 12:35:00,43.0,35.0,29.95,NNW,338,9.0,13.0,72,0.00,,,0.00,229,weatherlink.com 1.10,2013-03-06 17:35:00,
2013-03-06 12:49:00,43.0,34.0,29.94,NE,46,11.0,22.0,71,0.00,,,0.00,640,weatherlink.com 1.10,2013-03-06 17:49:00,
2013-03-06 13:05:00,43.4,35.0,29.93,NE,42,6.0,13.0,72,0.00,,,0.00,223,weatherlink.com 1.10,2013-03-06 18:05:00,
2013-03-06 13:20:00,43.6,35.0,29.92,NW,304,6.0,22.0,71,0.00,,,0.00,515,weatherlink.com 1.10,2013-03-06 18:20:00,
2013-03-06 13:35:00,43.9,34.0,29.91,NNW,332,9.0,29.0,69,0.00,,,0.00,253,weatherlink.com 1.10,2013-03-06 18:35:00,
2013-03-06 13:50:00,43.5,35.0,29.92,NE,40,9.0,26.0,71,0.00,,,0.00,172,weatherlink.com 1.10,2013-03-06 18:50:00,
2013-03-06 14:05:00,44.1,34.0,29.92,NW,313,8.0,23.0,68,0.00,,,0.00,241,weatherlink.com 1.10,2013-03-06 19:05:00,
2013-03-06 14:20:00,44.2,34.0,29.92,NNW,332,4.0,25.0,67,0.00,,,0.00,134,weatherlink.com 1.10,2013-03-06 19:20:00,
2013-03-06 14:36:00,43.9,34.0,29.92,NNW,335,9.0,30.0,69,0.00,,,0.00,279,weatherlink.com 1.10,2013-03-06 19:36:00,
2013-03-06 14:51:00,42.4,36.0,29.92,WNW,290,12.0,25.0,77,0.00,,,0.00,190,weatherlink.com 1.10,2013-03-06 19:51:00,
2013-03-06 15:21:00,42.3,36.0,29.92,West,261,15.0,26.0,77,0.00,,,0.00,135,weatherlink.com 1.10,2013-03-06 20:21:00,
2013-03-06 15:36:00,42.0,36.0,29.92,NNW,338,16.0,19.0,78,0.00,,,0.00,70,weatherlink.com 1.10,2013-03-06 20:36:00,
2013-03-06 15:51:00,42.0,35.0,29.92,NNE,12,5.0,21.0,76,0.00,,,0.00,72,weatherlink.com 1.10,2013-03-06 20:51:00,
2013-03-06 16:06:00,42.3,35.0,29.92,NE,35,8.0,22.0,74,0.00,,,0.00,69,weatherlink.com 1.10,2013-03-06 21:06:00,
2013-03-06 16:21:00,42.1,34.0,29.93,NW,309,10.0,30.0,74,0.00,,,0.00,81,weatherlink.com 1.10,2013-03-06 21:21:00,
2013-03-06 16:37:00,41.8,34.0,29.93,NW,309,9.0,24.0,75,0.00,,,0.00,54,weatherlink.com 1.10,2013-03-06 21:37:00,
2013-03-06 16:52:00,41.4,34.0,29.92,NW,315,5.0,27.0,76,0.00,,,0.00,47,weatherlink.com 1.10,2013-03-06 21:52:00,
2013-03-06 17:07:00,40.7,34.0,29.92,WNW,300,2.0,16.0,78,0.00,,,0.00,32,weatherlink.com 1.10,2013-03-06 22:07:00,
2013-03-06 17:22:00,40.4,34.0,29.93,WNW,294,14.0,21.0,79,0.00,,,0.00,11,weatherlink.com 1.10,2013-03-06 22:22:00,
2013-03-06 17:37:00,40.2,34.0,29.94,NW,315,7.0,20.0,79,0.00,,,0.00,0,weatherlink.com 1.10,2013-03-06 22:37:00,
2013-03-06 17:52:00,40.0,34.0,29.93,WNW,288,10.0,23.0,80,0.00,,,0.00,0,weatherlink.com 1.10,2013-03-06 22:52:00,
2013-03-06 18:07:00,40.0,34.0,29.93,WNW,295,17.0,23.0,79,0.00,,,0.00,0,weatherlink.com 1.10,2013-03-06 23:07:00,
2013-03-06 18:22:00,39.7,34.0,29.93,NW,323,19.0,26.0,80,0.00,,,0.00,0,weatherlink.com 1.10,2013-03-06 23:22:00,
2013-03-06 18:38:00,39.7,34.0,29.93,NW,307,19.0,30.0,79,0.00,,,0.00,0,weatherlink.com 1.10,2013-03-06 23:38:00,
2013-03-06 18:53:00,39.4,34.0,29.93,NW,319,17.0,24.0,81,0.00,,,0.00,0,weatherlink.com 1.10,2013-03-06 23:53:00,
2013-03-06 19:08:00,38.8,34.0,29.93,WNW,302,12.0,27.0,84,0.00,,,0.00,0,weatherlink.com 1.10,2013-03-07 00:08:00,
2013-03-06 19:23:00,39.0,34.0,29.93,WNW,283,15.0,28.0,83,0.00,,,0.00,0,weatherlink.com 1.10,2013-03-07 00:23:00,
2013-03-06 19:38:00,39.4,34.0,29.93,NW,311,13.0,34.0,81,0.00,,,0.00,0,weatherlink.com 1.10,2013-03-07 00:38:00,
2013-03-06 19:53:00,39.6,34.0,29.92,West,271,14.0,32.0,79,0.00,,,0.00,0,weatherlink.com 1.10,2013-03-07 00:53:00,
2013-03-06 20:08:00,39.7,33.0,29.92,WNW,297,12.0,30.0,78,0.00,,,0.00,0,weatherlink.com 1.10,2013-03-07 01:08:00,
2013-03-06 20:23:00,39.8,33.0,29.90,NW,305,17.0,36.0,78,0.00,,,0.00,0,weatherlink.com 1.10,2013-03-07 01:23:00,
2013-03-06 20:39:00,39.7,33.0,29.91,NNW,346,13.0,24.0,78,0.00,,,0.00,0,weatherlink.com 1.10,2013-03-07 01:39:00,
2013-03-06 20:55:00,39.9,33.0,29.92,NNW,327,23.0,40.0,77,0.00,,,0.00,0,weatherlink.com 1.10,2013-03-07 01:55:00,
2013-03-06 21:09:00,39.8,33.0,29.92,NW,306,17.0,28.0,78,0.00,,,0.00,0,weatherlink.com 1.10,2013-03-07 02:09:00,
2013-03-06 21:25:00,39.8,33.0,29.92,NW,315,9.0,30.0,78,0.00,,,0.00,0,weatherlink.com 1.10,2013-03-07 02:25:00,
2013-03-06 21:39:00,39.8,33.0,29.92,WNW,303,25.0,35.0,78,0.00,,,0.00,0,weatherlink.com 1.10,2013-03-07 02:39:00,
2013-03-06 21:55:00,39.5,34.0,29.92,NW,316,13.0,29.0,79,0.00,,,0.00,0,weatherlink.com 1.10,2013-03-07 02:55:00,
2013-03-06 22:09:00,39.5,33.0,29.92,WNW,290,15.0,22.0,78,0.00,,,0.00,0,weatherlink.com 1.10,2013-03-07 03:09:00,
2013-03-06 22:25:00,39.5,34.0,29.93,WNW,289,13.0,32.0,79,0.00,,,0.00,0,weatherlink.com 1.10,2013-03-07 03:25:00,
2013-03-06 22:40:00,39.4,33.0,29.92,WNW,296,7.0,25.0,78,0.00,,,0.00,0,weatherlink.com 1.10,2013-03-07 03:40:00,
2013-03-06 22:55:00,39.5,33.0,29.92,WSW,256,14.0,26.0,78,0.00,,,0.00,0,weatherlink.com 1.10,2013-03-07 03:55:00,
2013-03-06 23:10:00,39.4,33.0,29.91,WNW,300,16.0,34.0,77,0.00,,,0.00,0,weatherlink.com 1.10,2013-03-07 04:10:00,
2013-03-06 23:25:00,39.0,33.0,29.91,WNW,295,18.0,36.0,79,0.00,,,0.00,0,weatherlink.com 1.10,2013-03-07 04:25:00,
2013-03-06 23:41:00,39.2,33.0,29.91,West,281,15.0,25.0,78,0.00,,,0.00,0,weatherlink.com 1.10,2013-03-07 04:41:00,
2013-03-06 23:56:00,39.2,33.0,29.90,WNW,300,15.0,26.0,78,0.00,,,0.00,0,weatherlink.com 1.10,2013-03-07 04:56:00,